CZ-6A DEB

Satellite information

Favourite Embed

Satellite Type and Status

DEBRISIN ORBIT

Key statistics

Satellite CZ-6A DEB at a glance.

Uptime

335

Days in orbit

Revolutions

≈ 14.2

Per day

Orbit

LEO

Low Earth Orbit

Inclination

89.0

Latest

Satellite identification and parameters

Extended collection of information and parameters for CZ-6A DEB.

Object identification

Identified? True

Debris? True

Object name: CZ-6A DEB

International designator: 2024-140DA

Object number (NORAD): 60697

Object ID (CCSDS): 60697

Country: PEOPLES REPUBLIC OF CHINA (PRC)

Current information (Y/N): Y

RCS size: SMALL

Orbital parameters

Period: 101.723 minutes

Inclination: 89.0377 deg

SMA: 7218.356 km

Apoapsis: 883.775 km

Periapsis: 796.667 km

RAAN: 315.2053 deg

Eccentricy: 0.0060338

Argument of periapsis: 232.0088 deg

Mean anomaly: 127.5642 deg

Mean motion: 14.15615606 rev/day

Mean motion (dot): 0.00000349 rev/day2

B* drag term: 0.00016831 1/REarth

Two-line elements (TLE)

Creation date: July 6, 2025, 6:05 p.m.

Reference frame: TEME

Reference center: EARTH

Epoch: July 6, 2025, 8:59 a.m. UTC

TLE line 0: 0 CZ-6A DEB

TLE line 1: 1 60697U 24140DA 25187.37459689 .00000349 00000-0 16831-3 0 9991

TLE line 2: 2 60697 89.0377 315.2053 0060338 232.0088 127.5642 14.15615606 46648

Live tracking on map

Real-time ground track for satellite CZ-6A DEB.

In-orbit conjunctions

A list of the most updated potential collisions computed for object CZ-6A DEB.

Target Orbit TCA Probability of collision Miss distance Type
NOAA 16 DEB SSO 2025-01-03 21:03:12 0.000255566 677.0 (m) DEBRIS
CZ-6A DEB LEO 2025-01-03 14:17:26 0.0001499857 344.0 (m) DEBRIS
CZ-6A DEB LEO 2024-12-28 23:23:38 0.0003823913 931.0 (m) DEBRIS
NOAA 16 DEB SSO 2024-12-07 01:18:51 0.001545841 61.0 (m) DEBRIS
COSMOS 1275 DEB LEO 2024-11-29 08:23:42 0.0001384241 289.0 (m) DEBRIS

Associated space launch

18 Low Earth Orbit communication satellites with Ku, Q and V band payloads for the G60 constellation operated by Shanghai Spacecom Satellite Technology (SSST) with funding backed by the Shanghai local government. Initial constellation will consist of 1296 satellites by 2027 with long term plans to expand it to 12000 satellites.

CZ-6A DEB was lifted into orbit during the mission ‘Long March 6A | G60 Polar Group 01’, on board a Long March 6A space rocket.

The launch took place on Aug. 6, 2024, 6:42 a.m. from Launch Complex 9A.

For more information about the launch, click the button.

Launch to space Long March 6A | G60 Polar Group 01
Long March 6A | G60 Polar Group 01

Agency: N/A

Status: Launch Successful

Launch date: Aug. 6, 2024, 6:42 a.m. UTC

Rocket: Long March 6A

Launch pad: Launch Complex 9A

Location: Taiyuan Satellite Launch Center, People's Republic of China

...

Latest news about this satellite

News about space launch
Brightness of first Chinese broadband constellation satellites alarms astronomers

The first satellites of a Chinese broadband constellation are significantly brighter than those of Western systems, posing a new challenge for astronomers.

News about space launch
Chinese rocket stage breaks up into cloud of more than 700 pieces of space debris

HELSINKI — A Chinese Long March 6A rocket’s upper stage has fragmented into a cloud of over 700 pieces of space debris, adding to concerns about long-term orbital safety. China […]

News about space launch
China's Thousand Sails Megaconstellation Kicks Off with Dangerous Debris Field

China's Thousand Sails Megaconstellation Kicks Off with Dangerous Debris Field


Newsletter sign-up

Weekly statistics, charts and insights to help you stay on top of the space industry.